Regional Weather Roundup
Issued by NWS

Home | Current Version | Previous Version | Graphics & Text | Print | Product List | Glossary On
Versions: 1 2 3 4 5 6 7 8 9 10 11 12 13 14 15 16 17 18 19 20 21 22 23 24 25 26 27 28 29 30 31 32 33 34 35 36 37 38 39 40 41 42 43 44 45 46 47 48 49 50
000
ASUS43 KDMX 271607
RWRIA

WEATHER ROUNDUP FOR IOWA
NATIONAL WEATHER SERVICE DES MOINES IA
1100 AM CDT MON JUL 27 2015

NOTE: "FAIR" INDICATES FEW OR NO CLOUDS BELOW 12,000 FEET WITH NO
SIGNIFICANT WEATHER AND/OR OBSTRUCTIONS TO VISIBILITY.

* - THESE STATIONS ARE NOT NWS STATIONS...THUS NOT UNDER NWS
QUALITY CONTROL.  THEY ALSO DO NOT REPORT WEATHER SUCH
AS PRECIPITATION OR FOG.

IAZ001>003-012>014-020>022-031>034-043>046-271700-
   NORTHWEST IOWA

CITY           SKY/WX    TMP DP  RH WIND       PRES   REMARKS
CARROLL *      HVY RAIN  70  68  94 NW20G31   30.00R
CHEROKEE *     CLOUDY    75  68  78 SE12      29.94R
DENISON *      MOSUNNY   70  68  94 SE9G18    29.92F
LE MARS *      CLOUDY    73  66  78 SE15G22   29.89F
ORANGE CITY *  LGT RAIN  73  64  73 E8        29.89F
SHELDON *      HVY RAIN  77  70  78 S6        29.91R
SIOUX CITY     PTSUNNY   78  67  68 E14       29.89S HX  80
SPENCER        CLOUDY    76  65  68 S13       29.87F
STORM LAKE *   SUNNY     70  68  94 S10G16    29.98R
$$

IAZ055>058-069>071-079>083-090>094-271700-
   SOUTHWEST IOWA

CITY           SKY/WX    TMP DP  RH WIND       PRES   REMARKS
ATLANTIC *     CLOUDY    79  79 100 NE6       29.92R HX  83
AUDUBON *      HVY RAIN  70  66  88 N14G30    29.97R VSB 3/4
CLARINDA *     SUNNY     82  77  83 S6G13     29.90S HX  91
COUNCIL BLFS * SUNNY     81  77  89 E8        29.89R HX  88
CRESTON *      PTSUNNY   84  79  84 SE8G16    29.92R HX  96
HARLAN  *      CLOUDY    72  72 100 N9        29.95F
LAMONI         MOSUNNY   87  78  74 SE9       29.92S HX 100
RED OAK *      MOSUNNY   82  79  89 S7        29.90R HX  93
SHENANDOAH *   SUNNY     82  79  89 CALM      29.89S HX  93
$$

IAZ047>049-059>061-072>074-084-271700-
   CENTRAL IOWA

CITY           SKY/WX    TMP DP  RH WIND       PRES   REMARKS
AMES           CLOUDY    80  74  81 SE6       29.96R HX  85
ANKENY *       PTSUNNY   82  77  83 VRB6      29.95R HX  91
CHARITON *     MOSUNNY   86  77  74 SE10G18   29.92F HX  97
DES MOINES     CLOUDY    85  75  72 SE9       29.93R HX  93
GRINNELL*      MOSUNNY   82  73  74 SE13      29.96F HX  88
KNOXVILLE *    PTSUNNY   81  75  83 E8G17     29.92S HX  86
MARSHALLTOWN   CLOUDY    79  74  84 E12       29.95F HX  82
PELLA *        MOSUNNY   82  77  83 SE8       29.95S HX  91
PERRY *        CLOUDY    79  75  89 NE9       29.94R HX  82
$$

IAZ004>006-015-016-023>025-035-036-271700-
   NORTH CENTRAL IOWA

CITY           SKY/WX    TMP DP  RH WIND       PRES   REMARKS
ALGONA *       DRIZZLE   73  73 100 SE6       29.96F
CLARION *      CLOUDY    73  72  94 SW5       30.00R FOG
ESTHERVILLE    CLOUDY    73  71  93 E7        29.92F
FORT DODGE *   CLOUDY    70  66  88 SE6       29.99S
MASON CITY     CLOUDY    74  72  93 S10       30.01S
FOREST CITY *  CLOUDY    75  73  94 SE9       29.99S
IOWA FALLS *   CLOUDY    77  72  83 E6        30.00R
$$

IAZ007>011-017>019-026>030-037>042-050>054-066-271700-
   NORTHEAST IOWA

CITY           SKY/WX    TMP DP  RH WIND       PRES   REMARKS
CEDAR RAPIDS   MOSUNNY   80  75  84 E9        29.98S HX  85
CHARLES CITY * PTSUNNY   79  75  89 SE8       30.00R HX  82
CLINTON *      SUNNY     81  72  74 E12       30.02S HX  84
DUBUQUE        SUNNY     80  71  74 SE12      30.02S HX  84
MONTICELLO *   MOSUNNY   81  72  74 SE10      29.99S HX  84
OELWEIN *      SUNNY     79  72  78 SE9       30.00F HX  82
WATERLOO       PTSUNNY   81  73  76 SE8       29.96F HX  86
$$

IAZ064-065-067-068-078-271700-
   EAST CENTRAL IOWA

CITY           SKY/WX    TMP DP  RH WIND       PRES   REMARKS
DAVENPORT      SUNNY     81  71  71 SE9       30.00S HX  85
IOWA CITY      MOSUNNY   81  73  76 E10       29.98F HX  86
MT. PLEASANT * MOSUNNY   84  72  65 SE6       29.97F HX  89
MUSCATINE *    PTSUNNY   82  73  74 E8        29.98S HX  88
QUAD CITIES    SUNNY     81  71  71 SE10G17   29.99S HX  85
$$

IAZ062-063-075>077-085>089-095>099-271700-
   SOUTHEAST IOWA

CITY           SKY/WX    TMP DP  RH WIND       PRES   REMARKS
BURLINGTON     MOSUNNY   82  75  79 VRB7      29.97F HX  89
FAIRFIELD *    MOSUNNY   81  75  83 E9G16     29.96F HX  86
FORT MADISON * MOSUNNY   82  79  89 E7        29.98F HX  93
KEOKUK *       MOSUNNY   82  75  78 SE8       29.96F HX  89
OSKALOOSA *    PTSUNNY   81  75  83 SE7       29.96S HX  86
CENTERVILLE *  SUNNY     82  77  83 E10       29.95F HX  91
OTTUMWA        MOSUNNY   83  77  82 SE9       29.93F HX  92
WASHINGTON *   MOSUNNY   82  75  78 SE10      29.98F HX  89
$$

ABBREVIATIONS USED IN REMARKS
   TC - TEMPERATURES IN CELSIUS
  WCI - WIND CHILL INDEX
   HX - HEAT INDEX
  VSB - VISIBILITY
$$



USA.gov is the U.S. government's official web portal to all federal, state and local government web resources and services.